Location: Home
(42.5358°N, 72.7383°W)
Time: 00:13:27
(UTC-05:00)

KAITUO 1B - Visible Passes

Search period start: 28 January 2022 00:00
Search period end: 07 February 2022 00:00
Orbit: 486 x 507 km, 97.4° (Epoch: 27 January)

Date Brightness Start Highest point End Pass type
(mag) Time Alt. Az. Time Alt. Az. Time Alt. Az.
28 Jan ? 06:10:56 10° NNE 06:14:30 54° E 06:18:03 10° S visible
28 Jan ? 18:23:23 10° SW 18:26:08 20° W 18:28:53 10° NW visible
29 Jan ? 05:50:31 10° NE 05:53:43 29° E 05:56:55 10° SSE visible
29 Jan ? 18:01:57 10° SSW 18:05:18 36° W 18:08:40 10° NNW visible
30 Jan ? 05:30:28 10° NE 05:32:52 17° E 05:35:16 10° SE visible
30 Jan ? 17:40:57 10° S 17:44:32 70° WSW 17:48:08 10° NNW visible
01 Feb ? 06:21:36 10° NNE 06:25:15 76° ESE 06:28:53 10° S visible
01 Feb ? 18:34:44 10° SW 18:36:55 15° W 18:39:06 10° NW visible
02 Feb ? 06:01:01 10° NNE 06:04:28 39° E 06:07:54 10° S visible
02 Feb ? 18:12:56 10° SSW 18:16:01 27° W 18:19:07 10° NW visible
03 Feb ? 05:40:41 10° NE 05:43:36 22° E 05:46:31 10° SSE visible
03 Feb ? 17:51:41 10° S 17:55:10 49° W 17:58:42 10° NNW visible
04 Feb ? 05:21:00 10° ENE 05:22:41 13° E 05:24:21 10° ESE visible
04 Feb ? 17:30:47 10° SSE 17:34:23 85° ENE 17:38:00 10° N visible
05 Feb ? 18:46:20 10° WSW 18:47:34 11° W 18:48:47 10° WNW visible
06 Feb ? 06:11:25 10° NNE 06:15:01 55° E 06:18:37 10° S visible
06 Feb ? 18:23:52 10° SW 18:26:35 20° W 18:29:20 10° NW visible
